Time,TemperatureF,DewpointF,PressureIn,WindDirection,WindDirectionDegrees,WindSpeedMPH,WindSpeedGustMPH,Humidity,HourlyPrecipIn,Conditions,Clouds,dailyrainin,SoftwareType,DateUTC
2013-03-02 00:08:00,16.0,11.8,30.32,WSW,247,0.0,-999.0,83,-99.99,,,0.00,Acu-Link.com,2013-03-02 06:08:00,
2013-03-02 00:24:00,15.3,11.9,30.31,West,270,0.0,-999.0,86,-99.99,,,0.00,Acu-Link.com,2013-03-02 06:24:00,
2013-03-02 00:39:00,15.1,11.7,30.32,WSW,247,1.7,-999.0,86,-99.99,,,0.00,Acu-Link.com,2013-03-02 06:39:00,
2013-03-02 00:54:00,15.4,12.0,30.31,West,270,0.0,-999.0,86,-99.99,,,0.00,Acu-Link.com,2013-03-02 06:54:00,
2013-03-02 01:09:00,14.4,10.2,30.31,NNW,337,0.0,-999.0,83,-99.99,,,0.00,Acu-Link.com,2013-03-02 07:09:00,
2013-03-02 01:24:00,14.2,10.3,30.31,NW,315,0.0,-999.0,84,-99.99,,,0.00,Acu-Link.com,2013-03-02 07:24:00,
2013-03-02 01:40:00,14.0,10.9,30.31,SSW,202,2.2,-999.0,87,-99.99,,,0.00,Acu-Link.com,2013-03-02 07:40:00,
2013-03-02 01:55:00,14.5,11.6,30.31,NW,315,0.0,-999.0,88,-99.99,,,0.00,Acu-Link.com,2013-03-02 07:55:00,
2013-03-02 02:10:00,14.5,11.6,30.32,West,270,0.0,-999.0,88,-99.99,,,0.00,Acu-Link.com,2013-03-02 08:10:00,
2013-03-02 02:25:00,14.0,10.9,30.31,WSW,247,0.0,-999.0,87,-99.99,,,0.00,Acu-Link.com,2013-03-02 08:25:00,
2013-03-02 02:40:00,13.6,10.2,30.30,NNE,22,0.0,-999.0,86,-99.99,,,0.00,Acu-Link.com,2013-03-02 08:40:00,
2013-03-02 02:56:00,12.9,9.0,30.30,North,0,0.0,-999.0,84,-99.99,,,0.00,Acu-Link.com,2013-03-02 08:56:00,
2013-03-02 03:18:00,12.7,9.6,30.31,West,270,0.0,-999.0,87,-99.99,,,0.00,Acu-Link.com,2013-03-02 09:18:00,
2013-03-02 03:33:00,13.6,11.0,30.30,SW,225,0.0,-999.0,89,-99.99,,,0.00,Acu-Link.com,2013-03-02 09:33:00,
2013-03-02 03:49:00,13.5,10.6,30.30,West,270,0.0,-999.0,88,-99.99,,,0.00,Acu-Link.com,2013-03-02 09:49:00,
2013-03-02 04:04:00,12.6,9.2,30.29,WSW,247,0.0,-999.0,86,-99.99,,,0.00,Acu-Link.com,2013-03-02 10:04:00,
2013-03-02 04:19:00,12.6,9.5,30.29,West,270,0.0,-999.0,87,-99.99,,,0.00,Acu-Link.com,2013-03-02 10:19:00,
2013-03-02 04:49:00,13.3,10.4,30.30,West,270,0.0,-999.0,88,-99.99,,,0.00,Acu-Link.com,2013-03-02 10:49:00,
2013-03-02 05:05:00,12.2,8.8,30.31,West,270,0.0,-999.0,86,-99.99,,,0.00,Acu-Link.com,2013-03-02 11:05:00,
2013-03-02 05:20:00,11.7,8.1,30.30,WNW,292,0.0,-999.0,85,-99.99,,,0.00,Acu-Link.com,2013-03-02 11:20:00,
2013-03-02 05:35:00,10.9,7.0,30.31,West,270,0.0,-999.0,84,-99.99,,,0.00,Acu-Link.com,2013-03-02 11:35:00,
2013-03-02 05:50:00,12.6,10.0,30.32,NW,315,2.2,-999.0,89,-99.99,,,0.00,Acu-Link.com,2013-03-02 11:50:00,
2013-03-02 06:06:00,12.7,10.1,30.31,WSW,247,0.0,-999.0,89,-99.99,,,0.00,Acu-Link.com,2013-03-02 12:06:00,
2013-03-02 06:21:00,12.4,9.8,30.31,SSE,157,0.0,-999.0,89,-99.99,,,0.00,Acu-Link.com,2013-03-02 12:21:00,
2013-03-02 06:36:00,11.7,8.3,30.30,East,90,0.0,-999.0,86,-99.99,,,0.00,Acu-Link.com,2013-03-02 12:36:00,
2013-03-02 06:51:00,11.7,8.6,30.30,North,0,0.0,-999.0,87,-99.99,,,0.00,Acu-Link.com,2013-03-02 12:51:00,
2013-03-02 07:06:00,11.3,7.9,30.31,WSW,247,0.0,-999.0,86,-99.99,,,0.00,Acu-Link.com,2013-03-02 13:06:00,
2013-03-02 07:22:00,13.3,10.7,30.31,NNW,337,2.2,-999.0,89,-99.99,,,0.00,Acu-Link.com,2013-03-02 13:22:00,
2013-03-02 07:37:00,14.5,11.9,30.31,West,270,1.7,-999.0,89,-99.99,,,0.00,Acu-Link.com,2013-03-02 13:37:00,
2013-03-02 07:52:00,16.7,14.0,30.30,WNW,292,0.0,-999.0,89,-99.99,,,0.00,Acu-Link.com,2013-03-02 13:52:00,
2013-03-02 08:07:00,20.1,16.9,30.31,East,90,0.0,-999.0,87,-99.99,,,0.00,Acu-Link.com,2013-03-02 14:07:00,
2013-03-02 08:22:00,25.2,20.8,30.31,SSE,157,0.0,-999.0,83,-99.99,,,0.00,Acu-Link.com,2013-03-02 14:22:00,
2013-03-02 08:38:00,24.3,19.0,30.30,ESE,112,0.0,-999.0,80,-99.99,,,0.00,Acu-Link.com,2013-03-02 14:38:00,
2013-03-02 08:53:00,24.8,18.9,30.29,ESE,112,0.0,-999.0,78,-99.99,,,0.00,Acu-Link.com,2013-03-02 14:53:00,
2013-03-02 09:08:00,25.0,18.5,30.30,ESE,112,2.2,-999.0,76,-99.99,,,0.00,Acu-Link.com,2013-03-02 15:08:00,
2013-03-02 09:23:00,26.6,19.5,30.29,SW,225,1.7,-999.0,74,-99.99,,,0.00,Acu-Link.com,2013-03-02 15:23:00,
2013-03-02 09:38:00,26.6,18.5,30.28,SSW,202,0.0,-999.0,71,-99.99,,,0.00,Acu-Link.com,2013-03-02 15:38:00,
2013-03-02 09:54:00,30.0,20.7,30.29,NE,45,2.7,-999.0,68,-99.99,,,0.00,Acu-Link.com,2013-03-02 15:54:00,
2013-03-02 10:09:00,29.8,20.2,30.29,ESE,112,0.0,-999.0,67,-99.99,,,0.00,Acu-Link.com,2013-03-02 16:09:00,
2013-03-02 10:24:00,31.8,21.4,30.27,West,270,1.7,-999.0,65,-99.99,,,0.00,Acu-Link.com,2013-03-02 16:24:00,
2013-03-02 10:39:00,32.0,20.5,30.27,SSW,202,2.7,-999.0,62,-99.99,,,0.00,Acu-Link.com,2013-03-02 16:39:00,
2013-03-02 10:54:00,32.9,20.6,30.27,SSE,157,2.7,-999.0,60,-99.99,,,0.00,Acu-Link.com,2013-03-02 16:54:00,
2013-03-02 11:10:00,35.4,22.1,30.25,NNE,22,1.7,-999.0,58,-99.99,,,0.00,Acu-Link.com,2013-03-02 17:10:00,
2013-03-02 11:26:00,34.5,19.6,30.26,WSW,247,4.7,-999.0,54,-99.99,,,0.00,Acu-Link.com,2013-03-02 17:26:00,
2013-03-02 11:41:00,35.1,19.7,30.24,South,180,2.2,-999.0,53,-99.99,,,0.00,Acu-Link.com,2013-03-02 17:41:00,
2013-03-02 11:56:00,37.4,19.5,30.25,SSE,157,4.2,-999.0,48,-99.99,,,0.00,Acu-Link.com,2013-03-02 17:56:00,
2013-03-02 12:11:00,38.7,20.2,30.24,East,90,2.7,-999.0,47,-99.99,,,0.00,Acu-Link.com,2013-03-02 18:11:00,
2013-03-02 12:26:00,39.0,19.0,30.22,ESE,112,3.2,-999.0,44,-99.99,,,0.00,Acu-Link.com,2013-03-02 18:26:00,
2013-03-02 12:42:00,38.5,19.5,30.23,South,180,2.7,-999.0,46,-99.99,,,0.00,Acu-Link.com,2013-03-02 18:42:00,
2013-03-02 12:57:00,38.5,19.5,30.20,ESE,112,1.1,-999.0,46,-99.99,,,0.00,Acu-Link.com,2013-03-02 18:57:00,
2013-03-02 13:12:00,40.3,21.2,30.19,NE,45,1.1,-999.0,46,-99.99,,,0.00,Acu-Link.com,2013-03-02 19:12:00,
2013-03-02 13:27:00,39.7,20.1,30.20,SSE,157,2.7,-999.0,45,-99.99,,,0.00,Acu-Link.com,2013-03-02 19:27:00,
2013-03-02 13:42:00,39.7,21.1,30.18,ESE,112,1.1,-999.0,47,-99.99,,,0.00,Acu-Link.com,2013-03-02 19:42:00,
2013-03-02 13:58:00,42.1,21.8,30.17,ESE,112,0.0,-999.0,44,-99.99,,,0.00,Acu-Link.com,2013-03-02 19:58:00,
2013-03-02 14:13:00,44.1,23.6,30.16,WSW,247,3.7,-999.0,44,-99.99,,,0.00,Acu-Link.com,2013-03-02 20:13:00,
2013-03-02 14:28:00,44.2,23.7,30.16,NE,45,1.1,-999.0,44,-99.99,,,0.00,Acu-Link.com,2013-03-02 20:28:00,
2013-03-02 14:44:00,43.2,23.3,30.15,SSE,157,3.2,-999.0,45,-99.99,,,0.00,Acu-Link.com,2013-03-02 20:44:00,
2013-03-02 14:59:00,43.2,23.8,30.15,SE,135,5.3,-999.0,46,-99.99,,,0.00,Acu-Link.com,2013-03-02 20:59:00,
2013-03-02 15:14:00,43.3,23.4,30.14,SSE,157,1.7,-999.0,45,-99.99,,,0.00,Acu-Link.com,2013-03-02 21:14:00,
2013-03-02 15:29:00,43.9,25.0,30.13,SSE,157,2.2,-999.0,47,-99.99,,,0.00,Acu-Link.com,2013-03-02 21:29:00,
2013-03-02 15:44:00,43.5,25.1,30.13,SE,135,4.2,-999.0,48,-99.99,,,0.00,Acu-Link.com,2013-03-02 21:44:00,
2013-03-02 16:00:00,45.0,26.0,30.12,SE,135,3.2,-999.0,47,-99.99,,,0.00,Acu-Link.com,2013-03-02 22:00:00,
2013-03-02 16:15:00,44.8,26.3,30.12,NNW,337,2.2,-999.0,48,-99.99,,,0.00,Acu-Link.com,2013-03-02 22:15:00,
2013-03-02 16:30:00,45.5,27.0,30.12,NW,315,2.2,-999.0,48,-99.99,,,0.00,Acu-Link.com,2013-03-02 22:30:00,
2013-03-02 16:45:00,45.5,27.0,30.11,SSE,157,3.7,-999.0,48,-99.99,,,0.00,Acu-Link.com,2013-03-02 22:45:00,
2013-03-02 17:01:00,44.4,26.0,30.11,SSE,157,4.2,-999.0,48,-99.99,,,0.00,Acu-Link.com,2013-03-02 23:01:00,
2013-03-02 17:16:00,43.5,26.1,30.10,West,270,2.2,-999.0,50,-99.99,,,0.00,Acu-Link.com,2013-03-02 23:16:00,
2013-03-02 17:31:00,43.2,26.3,30.11,East,90,1.7,-999.0,51,-99.99,,,0.00,Acu-Link.com,2013-03-02 23:31:00,
2013-03-02 17:47:00,41.7,25.4,30.11,South,180,4.2,-999.0,52,-99.99,,,0.00,Acu-Link.com,2013-03-02 23:47:00,
2013-03-02 18:02:00,40.6,25.3,30.09,SE,135,2.2,-999.0,54,-99.99,,,0.00,Acu-Link.com,2013-03-03 00:02:00,
2013-03-02 18:17:00,39.7,25.7,30.09,ESE,112,3.2,-999.0,57,-99.99,,,0.00,Acu-Link.com,2013-03-03 00:17:00,
2013-03-02 18:32:00,39.2,25.7,30.10,SE,135,2.7,-999.0,58,-99.99,,,0.00,Acu-Link.com,2013-03-03 00:32:00,
2013-03-02 18:48:00,38.7,26.0,30.10,SE,135,3.2,-999.0,60,-99.99,,,0.00,Acu-Link.com,2013-03-03 00:48:00,
2013-03-02 19:03:00,38.1,25.9,30.10,SSE,157,2.7,-999.0,61,-99.99,,,0.00,Acu-Link.com,2013-03-03 01:03:00,
2013-03-02 19:18:00,37.4,25.6,30.10,South,180,2.2,-999.0,62,-99.99,,,0.00,Acu-Link.com,2013-03-03 01:18:00,
2013-03-02 19:33:00,37.2,25.4,30.09,ESE,112,2.2,-999.0,62,-99.99,,,0.00,Acu-Link.com,2013-03-03 01:33:00,
2013-03-02 19:48:00,36.9,25.5,30.09,SE,135,1.7,-999.0,63,-99.99,,,0.00,Acu-Link.com,2013-03-03 01:48:00,
2013-03-02 20:04:00,36.7,25.3,30.08,SW,225,1.7,-999.0,63,-99.99,,,0.00,Acu-Link.com,2013-03-03 02:04:00,
2013-03-02 20:19:00,36.5,25.1,30.08,ESE,112,4.2,-999.0,63,-99.99,,,0.00,Acu-Link.com,2013-03-03 02:19:00,
2013-03-02 20:35:00,36.0,25.0,30.09,SE,135,2.7,-999.0,64,-99.99,,,0.00,Acu-Link.com,2013-03-03 02:35:00,
2013-03-02 20:50:00,35.8,24.5,30.08,SW,225,1.7,-999.0,63,-99.99,,,0.00,Acu-Link.com,2013-03-03 02:50:00,
2013-03-02 21:05:00,35.1,24.2,30.08,NNE,22,1.7,-999.0,64,-99.99,,,0.00,Acu-Link.com,2013-03-03 03:05:00,
2013-03-02 21:20:00,34.3,23.8,30.07,WNW,292,2.7,-999.0,65,-99.99,,,0.00,Acu-Link.com,2013-03-03 03:20:00,
2013-03-02 21:35:00,33.8,23.7,30.07,SSE,157,1.7,-999.0,66,-99.99,,,0.00,Acu-Link.com,2013-03-03 03:35:00,
2013-03-02 21:51:00,33.6,23.1,30.06,SSE,157,1.7,-999.0,65,-99.99,,,0.00,Acu-Link.com,2013-03-03 03:51:00,
2013-03-02 22:06:00,33.4,22.9,30.04,ESE,112,2.7,-999.0,65,-99.99,,,0.00,Acu-Link.com,2013-03-03 04:06:00,
2013-03-02 22:21:00,33.6,23.5,30.06,SW,225,4.7,-999.0,66,-99.99,,,0.00,Acu-Link.com,2013-03-03 04:21:00,
2013-03-02 22:36:00,33.8,23.7,30.06,South,180,2.7,-999.0,66,-99.99,,,0.00,Acu-Link.com,2013-03-03 04:36:00,
2013-03-02 22:51:00,33.6,24.2,30.04,South,180,4.7,-999.0,68,-99.99,,,0.00,Acu-Link.com,2013-03-03 04:51:00,
2013-03-02 23:07:00,33.6,24.5,30.04,North,0,4.2,-999.0,69,-99.99,,,0.00,Acu-Link.com,2013-03-03 05:07:00,
2013-03-02 23:22:00,33.6,24.9,30.04,SSW,202,3.2,-999.0,70,-99.99,,,0.00,Acu-Link.com,2013-03-03 05:22:00,
2013-03-02 23:37:00,33.4,25.0,30.04,ESE,112,2.2,-999.0,71,-99.99,,,0.00,Acu-Link.com,2013-03-03 05:37:00,
2013-03-02 23:52:00,33.4,25.4,30.03,WSW,247,2.2,-999.0,72,-99.99,,,0.00,Acu-Link.com,2013-03-03 05:52:00,